星链-4165 (STARLINK-4165 )

导读

STARLINK-4165是美国太空探索技术公司Starlink星链星座的组成卫星,于北京时间2022年7月24日发射入轨,星链计划旨在搭建全球覆盖的卫星互联网通信网络,为全球多地提供宽带互联网接入服务,这颗卫星也承担着低轨星座组网,补充覆盖区域通信能力的任务。

基本信息
目录编号:
53286
目录名称:
STARLINK-4165
国际标识:
2022-086AW
轨道中心:
EARTH
卫星名称:
星链-4165
卫星全名:
星链-4165 (STARLINK-4165 )
卫星状态:
在轨 (已飞行1511 天)
发射日期:
2022-07-24 UTC
国别 :
美国 (US)
星等 :
--
该卫星已列入 空间交会检测服务 Space Conjunction Data Service (SCDS) ,当前飞行风险评估等级: 无高风险
轨道信息
数据来源 国际轨道数据
星历时间: 2026-09-12T00:38:23+0800
16小时前
查看轨道信息
半长轴: 6848.858km
偏心率: 0.0001392
轨道倾角: 53.161°
近地点辐角 74.065°
升交点赤经 56.861°
平近点角 286.051°
近地点: 469.767km
远地点: 471.675km
周期: 94.013分钟
每日圈数: 15.317067
详细信息
固有亮度:
5
最大亮度:
2.5
卫星平台:
Starlink v1.5
覆盖范围:
全球
运营商:
太空探索技术公司
运营商所在国:
美国
制造商(研发单位):
太空探索技术公司
制造商所在国:
美国
使用方式:
暂无
卫星简介
星链(Starlink)计划是由太空探索技术公司(SpaceX)提出的一个巨型低轨卫星互联网星座项目,计划在2019年至2024年间在太空搭建由约1.2万颗卫星组成的“星链”网络,其中1584颗将部署在地球上空550千米处的近地轨道,并从2020年开始工作。该卫星仍在工作。
2D轨道图
3D轨道图
轨道高度分析图
轨道倾角分析图
轨道综合分析图
查看轨道综合分析图
与全量物体交会距离演化趋势
与全量物体交会风险概率演化趋势